Location: Harwich
(41.7160°N, 69.9939°W)
Time: 13:55:48
(UTC+02:00)

UNISAT 6 - Visible Passes

Search period start: 17 September 2024 00:00
Search period end: 27 September 2024 00:00
Orbit: 589 x 661 km, 97.7° (Epoch: 16 September)

Date Brightness Start Highest point End Pass type
(mag) Time Alt. Az. Time Alt. Az. Time Alt. Az.
17 Sep ? 10:06:04 22° SE 10:08:35 57° ENE 10:12:45 10° N visible
17 Sep ? 11:43:40 10° WSW 11:45:13 12° W 11:46:47 10° WNW visible
18 Sep ? 10:25:29 30° S 10:27:30 86° WSW 10:31:47 10° NNW visible
19 Sep ? 09:08:24 10° E 09:10:40 14° ENE 09:12:59 10° NNE visible
19 Sep ? 10:44:52 32° SSW 10:46:27 52° W 10:50:37 10° NNW visible
20 Sep ? 09:26:57 14° ESE 09:29:24 22° ENE 09:32:42 10° NNE visible
20 Sep ? 11:04:15 27° SW 11:05:26 31° W 11:09:16 10° NNW visible
21 Sep ? 09:46:19 23° ESE 09:48:09 34° ENE 09:52:01 10° N visible
21 Sep ? 11:23:37 19° WSW 11:24:29 20° W 11:27:38 10° NW visible
22 Sep ? 10:05:41 39° SE 10:06:57 55° ENE 10:11:09 10° N visible
22 Sep ? 11:42:59 12° W 11:43:33 12° W 11:45:22 10° WNW visible
23 Sep ? 10:25:02 60° SSE 10:25:47 89° WSW 10:30:06 10° NNW visible
24 Sep ? 09:07:05 11° E 09:08:54 14° ENE 09:11:12 10° NNE visible
24 Sep ? 10:44:22 53° WSW 10:44:39 54° W 10:48:53 10° NNW visible
25 Sep ? 09:26:24 19° E 09:27:32 22° ENE 09:30:51 10° NNE visible
25 Sep ? 11:03:42 33° W 11:03:42 33° W 11:07:29 10° NNW visible
26 Sep ? 09:45:43 32° E 09:46:13 33° ENE 09:50:07 10° N visible
26 Sep ? 11:23:00 20° W 11:23:00 20° W 11:25:48 10° NW visible
